Regional Weather Roundup
Issued by NWS

Home | Current Version | Previous Version | Graphics & Text | Print | Product List | Glossary On
Versions: 1 2 3 4 5 6 7 8 9 10 11 12 13 14 15 16 17 18 19 20 21 22 23 24 25 26 27 28 29 30 31 32 33 34 35 36 37 38 39 40 41 42 43 44 45 46 47 48 49
000
ASUS45 KBOU 160207
RWRCO

WEATHER ROUNDUP FOR COLORADO
NATIONAL WEATHER SERVICE DENVER/BOULDER CO
800 PM MDT MON SEP 15 2014

NOTE: "FAIR" INDICATES FEW OR NO CLOUDS BELOW 12000 FEET WITH NO
SIGNIFICANT WEATHER AND/OR OBSTRUCTIONS TO VISIBILITY.

COZ001>005-013-030-031-160300-
...NORTHWEST COLORADO...

CITY           SKY/WX    TMP DP  RH WIND       PRES   REMARKS
CRAIG          CLEAR     60  41  49 NW3       30.23R
HAYDEN         MOCLDY    64  34  32 CALM      30.25S
MEEKER         CLEAR     59  43  55 NE5       30.25R
MOUNT WERNER   NOT AVBL
STEAMBOAT SPGS PTCLDY    65  40  39 E7        30.28S
WALDEN         PTCLDY    59  32  36 CALM      30.37R
$$

COZ006>008-011-160300-
...WEST CENTRAL VALLEYS...

CITY           SKY/WX    TMP DP  RH WIND       PRES   REMARKS
GRAND JUNCTION CLEAR     76  42  29 NE3       30.11R
MONTROSE       CLEAR     70  45  40 S3        30.20R
EAGLE          CLEAR     66  41  39 E5        30.28R
RIFLE          CLEAR     67  44  43 SE6       30.19R
DELTA          CLEAR     77  38  25 N8        30.14S
NUCLA          PTCLDY    77  34  20 CALM      30.23R
$$

COZ017>023-064>068-160300-
...SOUTHWEST COLORADO...

CITY           SKY/WX    TMP DP  RH WIND       PRES   REMARKS
DURANGO        PTCLDY    71  32  23 S8        30.25R
CORTEZ         CLEAR     68  44  42 SE3       30.19R
PAGOSA SPRINGS PTCLDY    71  34  25 S5        30.36R
TELLURIDE      NOT AVBL
WOLF CREEK PAS LGT RAIN  48  32  53 NE3       30.67R
$$

COZ009-010-012-014-032>034-037-058>063-160300-
...CENTRAL COLORADO...

CITY           SKY/WX    TMP DP  RH WIND       PRES   REMARKS
ASPEN          PTCLDY    58  39  49 S7        30.36R
BUENA VISTA    PTCLDY    59  43  55 E8        30.40R
COPPER MTN     CLEAR     52  30  43 W18       30.67S
BERTHOUD PASS  FAIR      43  41  93 W12       30.70F
COTTONWOOD PAS PTCLDY    61  36  39 SE9G18    30.53R
GUNNISON       CLEAR     64  34  32 N3        30.35R
KREMMLING      CLEAR     61  34  36 CALM      30.34R
LEADVILLE      CLOUDY    49  31  49 NE7       30.51R
MONARCH PASS   PTCLDY    43  39  87 E15       30.76R
SALIDA         PTCLDY    62  46  55 E8G17     30.45R
SUNLIGHT       CLEAR     54  32  43 CALM      30.60R
WILKERSON PASS NOT AVBL
$$

COZ069>075-160300-
...SAN LUIS VALLEY/SANGRE DE CRISTO MOUNTAINS...

CITY           SKY/WX    TMP DP  RH WIND       PRES   REMARKS
ALAMOSA        MOCLDY    58  44  60 SE8       30.35F
LA VETA PASS   NOT AVBL
SAGUACHE       NOT AVBL
$$

COZ035-036-038>040-160300-
...NORTHERN COLORADO FRONT RANGE...

CITY           SKY/WX    TMP DP  RH WIND       PRES   REMARKS
DENVER INTL AP PTCLDY    64  50  60 S10       30.23S
DMNS CITY PARK   N/A     63  48  56 N2        30.24S
AURORA         PTCLDY    62  50  63 SE2       30.26S
FRONT RANGE AP NOT AVBL
ERIE MUNI ARPT PTCLDY    60  48  64 CALM      30.22F
BOULDER MUN AP PTCLDY    61  46  59 CALM      30.24S
CENTENNIAL     MOCLDY    61  48  62 SW5       30.26F
BROOMFIELD     PTCLDY    66  45  45 N3        30.26F
FORT COLLINS   CLEAR     63  48  59 SE3       30.24R
LONGMONT       CLEAR     58  50  72 NW6       30.25S
$$

COZ041-046-047-076>085-087-088-160300-
...PIKES PEAK/PALMER DIVIDE AND SOUTHERN FOOTHILLS...

CITY           SKY/WX    TMP DP  RH WIND       PRES   REMARKS
COLO. SPRINGS  PTCLDY    58  49  72 SE7       30.36R
A. F. ACADEMY  PTCLDY    57  48  72 SE8       30.36R
ELLICOTT       NOT AVBL
FALCON         PTCLDY    54  48  82 S7        30.39R
FORT CARSON    MOCLDY    59  50  73 SE9       30.33R
LIMON          CLEAR     56  50  80 SE10      30.31R
MONUMENT HILL  PTCLDY    54  46  76 S9        30.37S
TRINIDAD       PTCLDY    55  50  83 E7        30.33R
$$

COZ042>045-048>051-090-091-160300-
...NORTHEAST COLORADO...

CITY           SKY/WX    TMP DP  RH WIND       PRES   REMARKS
GREELEY ARPT   CLEAR     61  48  63 E8        30.23S
AKRON          CLEAR     57  50  77 SE14      30.25S
BURLINGTON     CLEAR     55  49  80 SE8       30.28S
WRAY           CLEAR     57  47  70 SE8       30.25R
STERLING       CLEAR     61  54  77 S5        30.21S
HOLYOKE        CLEAR     54  46  76 SE8       30.25R
FORT MORGAN    CLEAR     56  51  81 E8        30.24S
$$

COZ086-089-092>099-160300-
...SOUTHEAST COLORADO...

CITY           SKY/WX    TMP DP  RH WIND       PRES   REMARKS
PUEBLO         PTCLDY    62  53  72 SE10      30.29R
LA JUNTA       CLOUDY    61  52  72 SE9       30.30R
LAMAR          CLOUDY    62  52  69 S5        30.27R
SPRINGFIELD      N/A     57  53  86 NE5       30.32R
$$



USA.gov is the U.S. government's official web portal to all federal, state and local government web resources and services.